Location: Mascot Post Office (historical)
(40.2645°N, 99.5462°W)
Time: 02:25:57
(UTC+00:00)

OE (NEXTSAT) - Pass Details

Date: 14 July 2020
Orbit: 430 x 439 km, 46.0° (Epoch: 14 August)

Event Time Altitude Azimuth Distance (km) Brightness Sun altitude
Exits shadow 10:06:40 20° 246° (WSW) 1,060 5.7 -12.3°
Maximum altitude 10:08:57 86° 333° (NNW) 435 4.3 -11.9°
Drops below altitude 10° 10:12:24 10° 64° (ENE) 1,527 8.4 -11.5°
Sets 10:14:32 0° 65° (ENE) 2,396 9.8 -11.2°
